TimeEDT,TemperatureF,Dew PointF,Humidity,Sea Level PressureIn,VisibilityMPH,Wind Direction,Wind SpeedMPH,Gust SpeedMPH,PrecipitationIn,Events,Conditions,WindDirDegrees,DateUTC
12:15 AM,55.4,50.0,82,30.01,10.0,South,10.4,16.1,N/A,,Mostly Cloudy,170,2013-10-16 04:15:00
12:35 AM,55.4,50.0,82,30.01,10.0,South,8.1,-,N/A,,Scattered Clouds,180,2013-10-16 04:35:00
12:55 AM,55.4,50.0,82,30.01,10.0,South,12.7,18.4,N/A,,Clear,170,2013-10-16 04:55:00
1:15 AM,55.4,50.0,82,30.01,10.0,South,10.4,18.4,N/A,,Clear,190,2013-10-16 05:15:00
1:35 AM,55.4,48.2,77,30.01,10.0,South,9.2,-,N/A,,Clear,190,2013-10-16 05:35:00
1:55 AM,55.4,48.2,77,30.00,10.0,South,10.4,16.1,N/A,,Clear,170,2013-10-16 05:55:00
2:15 AM,55.4,48.2,77,30.00,10.0,South,9.2,-,N/A,,Clear,190,2013-10-16 06:15:00
2:35 AM,55.4,48.2,77,30.00,10.0,South,9.2,-,N/A,,Clear,190,2013-10-16 06:35:00
2:55 AM,55.4,46.4,72,30.00,10.0,South,8.1,-,N/A,,Scattered Clouds,190,2013-10-16 06:55:00
3:15 AM,53.6,46.4,77,29.99,10.0,South,10.4,16.1,N/A,,Scattered Clouds,180,2013-10-16 07:15:00
3:35 AM,53.6,46.4,77,29.98,10.0,South,10.4,-,N/A,,Clear,180,2013-10-16 07:35:00
3:55 AM,53.6,46.4,77,29.97,10.0,South,9.2,-,N/A,,Clear,190,2013-10-16 07:55:00
4:15 AM,53.6,46.4,77,29.97,10.0,South,9.2,-,N/A,,Clear,180,2013-10-16 08:15:00
4:35 AM,53.6,46.4,77,29.97,10.0,South,10.4,18.4,N/A,,Clear,190,2013-10-16 08:35:00
4:55 AM,53.6,46.4,77,29.96,10.0,SSW,10.4,-,N/A,,Clear,200,2013-10-16 08:55:00
5:15 AM,53.6,46.4,77,29.96,10.0,South,10.4,-,N/A,,Scattered Clouds,190,2013-10-16 09:15:00
5:35 AM,53.6,46.4,77,29.96,10.0,South,9.2,-,N/A,,Scattered Clouds,190,2013-10-16 09:35:00
5:55 AM,53.6,46.4,77,29.96,10.0,South,9.2,-,N/A,,Overcast,190,2013-10-16 09:55:00
6:15 AM,53.6,46.4,77,29.95,10.0,SSW,8.1,-,N/A,,Overcast,200,2013-10-16 10:15:00
6:35 AM,53.6,46.4,77,29.95,10.0,South,8.1,-,N/A,,Overcast,190,2013-10-16 10:35:00
6:55 AM,53.6,46.4,77,29.95,10.0,SSW,6.9,-,N/A,,Overcast,200,2013-10-16 10:55:00
7:15 AM,53.6,46.4,77,29.95,10.0,South,9.2,-,N/A,,Light Drizzle,190,2013-10-16 11:15:00
7:35 AM,53.6,46.4,77,29.96,10.0,South,8.1,-,N/A,Rain,Light Rain,190,2013-10-16 11:35:00
7:55 AM,51.8,48.2,88,29.96,10.0,South,8.1,-,N/A,,Drizzle,190,2013-10-16 11:55:00
8:15 AM,51.8,48.2,88,29.96,10.0,South,6.9,-,N/A,Rain,Light Rain,190,2013-10-16 12:15:00
8:35 AM,51.8,48.2,88,29.97,10.0,South,8.1,-,N/A,,Overcast,190,2013-10-16 12:35:00
8:55 AM,51.8,50.0,94,29.96,10.0,South,8.1,-,N/A,Rain,Rain,190,2013-10-16 12:55:00
9:15 AM,51.8,50.0,94,29.96,10.0,South,9.2,-,N/A,,Drizzle,170,2013-10-16 13:15:00
9:35 AM,51.8,50.0,94,29.95,10.0,South,8.1,-,N/A,Rain,Light Rain,180,2013-10-16 13:35:00
9:55 AM,51.8,50.0,94,29.95,7.0,SSW,6.9,-,N/A,Rain,Light Rain,200,2013-10-16 13:55:00
10:15 AM,51.8,50.0,94,29.95,10.0,SSW,6.9,-,N/A,,Overcast,200,2013-10-16 14:15:00
10:35 AM,51.8,51.8,100,29.95,7.0,SSW,5.8,-,N/A,Rain,Light Rain,200,2013-10-16 14:35:00
10:55 AM,51.8,50.0,94,29.95,3.0,South,6.9,-,N/A,Rain,Heavy Rain,190,2013-10-16 14:55:00
11:15 AM,51.8,51.8,100,29.95,4.0,South,6.9,-,N/A,Rain,Light Rain,180,2013-10-16 15:15:00
11:35 AM,51.8,51.8,100,29.94,4.0,South,10.4,-,N/A,Rain,Rain,190,2013-10-16 15:35:00
11:55 AM,51.8,51.8,100,29.94,4.0,South,10.4,-,N/A,,Drizzle,190,2013-10-16 15:55:00
12:15 PM,51.8,51.8,100,29.94,4.0,South,10.4,16.1,N/A,Rain,Rain,190,2013-10-16 16:15:00
12:35 PM,51.8,51.8,100,29.93,7.0,South,11.5,17.3,N/A,,Overcast,190,2013-10-16 16:35:00
12:55 PM,51.8,51.8,100,29.90,7.0,South,11.5,19.6,N/A,,Light Drizzle,180,2013-10-16 16:55:00
1:15 PM,53.6,53.6,100,29.91,10.0,SSW,9.2,-,N/A,,Overcast,200,2013-10-16 17:15:00
1:35 PM,51.8,51.8,100,29.91,7.0,SW,6.9,17.3,N/A,Rain,Light Rain,220,2013-10-16 17:35:00
1:55 PM,53.6,53.6,100,29.91,10.0,SSW,9.2,-,N/A,,Overcast,210,2013-10-16 17:55:00
2:15 PM,53.6,53.6,100,29.89,10.0,SSW,9.2,-,N/A,,Overcast,200,2013-10-16 18:15:00
2:35 PM,53.6,53.6,100,29.89,10.0,SSW,8.1,-,N/A,Rain,Rain,200,2013-10-16 18:35:00
2:55 PM,53.6,53.6,100,29.88,10.0,SSW,8.1,16.1,N/A,,Overcast,200,2013-10-16 18:55:00
3:15 PM,53.6,53.6,100,29.88,10.0,SSW,5.8,-,N/A,,Overcast,200,2013-10-16 19:15:00
3:35 PM,53.6,53.6,100,29.89,10.0,SSW,9.2,-,N/A,,Overcast,200,2013-10-16 19:35:00
3:55 PM,53.6,53.6,100,29.89,10.0,SSW,6.9,-,N/A,,Overcast,200,2013-10-16 19:55:00
4:15 PM,53.6,53.6,100,29.88,10.0,South,6.9,-,N/A,,Overcast,190,2013-10-16 20:15:00
4:35 PM,55.4,53.6,94,29.87,10.0,SSW,8.1,-,N/A,,Overcast,200,2013-10-16 20:35:00
4:55 PM,55.4,53.6,94,29.86,10.0,South,8.1,-,N/A,,Overcast,190,2013-10-16 20:55:00
5:15 PM,55.4,53.6,94,29.85,10.0,South,6.9,-,N/A,,Overcast,190,2013-10-16 21:15:00
5:35 PM,55.4,53.6,94,29.85,10.0,SSW,9.2,-,N/A,,Overcast,200,2013-10-16 21:35:00
5:55 PM,55.4,53.6,94,29.85,10.0,SSW,9.2,-,N/A,,Overcast,200,2013-10-16 21:55:00
6:15 PM,53.6,53.6,100,29.84,7.0,South,8.1,-,N/A,,Overcast,190,2013-10-16 22:15:00
6:35 PM,55.4,53.6,94,29.85,7.0,SSW,9.2,-,N/A,,Overcast,210,2013-10-16 22:35:00
6:55 PM,55.4,55.4,100,29.84,5.0,SSW,8.1,-,N/A,,Overcast,210,2013-10-16 22:55:00
7:15 PM,55.4,55.4,100,29.84,5.0,SSW,5.8,-,N/A,,Overcast,200,2013-10-16 23:15:00
7:35 PM,55.4,55.4,100,29.84,5.0,SSW,6.9,-,N/A,Rain,Light Rain,210,2013-10-16 23:35:00
7:55 PM,55.4,55.4,100,29.84,4.0,SSW,8.1,-,N/A,Rain,Heavy Rain,200,2013-10-16 23:55:00
8:15 PM,55.4,55.4,100,29.84,4.0,SSW,6.9,-,N/A,Rain,Light Rain,200,2013-10-17 00:15:00
8:35 PM,55.4,55.4,100,29.84,2.5,SSW,6.9,-,N/A,Rain,Rain,210,2013-10-17 00:35:00
8:55 PM,55.4,55.4,100,29.84,2.0,SW,9.2,-,N/A,Rain,Rain,220,2013-10-17 00:55:00
9:15 PM,55.4,55.4,100,29.86,2.0,Calm,Calm,-,N/A,Rain,Heavy Rain,0,2013-10-17 01:15:00
9:35 PM,55.4,55.4,100,29.86,10.0,Calm,Calm,-,N/A,,Overcast,0,2013-10-17 01:35:00
9:55 PM,55.4,55.4,100,29.87,10.0,West,9.2,18.4,N/A,,Overcast,270,2013-10-17 01:55:00
10:15 PM,53.6,53.6,100,29.87,10.0,West,3.5,-,N/A,,Overcast,280,2013-10-17 02:15:00
10:35 PM,53.6,51.8,94,29.87,10.0,West,4.6,-,N/A,,Overcast,270,2013-10-17 02:35:00
10:55 PM,51.8,50.0,94,29.88,10.0,West,6.9,-,N/A,,Overcast,260,2013-10-17 02:55:00
11:15 PM,51.8,50.0,94,29.88,10.0,West,6.9,-,N/A,,Overcast,270,2013-10-17 03:15:00
11:35 PM,51.8,50.0,94,29.88,10.0,West,5.8,-,N/A,,Overcast,270,2013-10-17 03:35:00
11:55 PM,51.8,46.4,82,29.88,10.0,Calm,Calm,-,N/A,,Overcast,0,2013-10-17 03:55:00